User: anonymous   Login
Location: Haulchin
(50.3172°N, 3.4360°E)
Time: 22:16:05
(UTC+00:00)
Language:

Cosmos 1908 - Orbit

View from above orbital plane
View from above orbital plane
View from above satellite
View from above satellite

Ground track
Ground track

The orbit data is extracted from the following two-line orbital elements,

1 18748U 88001A   24206.47770697  .00015430  00000-0  50197-3 0  9994
2 18748  82.4649   4.5335 0009083 244.1810 115.8495 15.31717846998869
Epoch (UTC): 24 July 2024 11:27:53
Eccentricity: 0.0009083
inclination: 82.4649°
perigee height: 464 km
apogee height: 477 km
right ascension of ascending node: 4.5335°
argument of perigee: 244.1810°
revolutions per day: 15.31717846
mean anomaly at epoch: 115.8495°
orbit number at epoch: 99886

The dashed part of the orbit path shows where the satellite is in the earth's shadow,  

DLR